{"data":{"norad_id":68179,"intl_designator":"2026-050N","name":"STARLINK-37052","alt_names":[],"object_type":"PAYLOAD","status":"ACTIVE","operator":null,"country":"US","launch_date":"2026-03-14","launch_site_code":"AFETR","launch_vehicle":null,"mission":null,"orbit_class":"UNKNOWN","rcs_meters":null,"size_class":null,"mass_kg":null,"dimensions":null,"purposes":["comms"],"wikipedia_slug":null,"has_3d_model":false,"image_url":null,"decayed_at":null,"tle_current":{"epoch":"2026-09-20T00:04:15.564288Z","epoch_age_seconds":99138,"freshness":"FRESH","line1":"1 68179U 26050N   26263.00295792  .00020362  00000+0  61197-3 0  9996","line2":"2 68179  53.1584  79.9132 0001687  86.0967 274.0228 15.34408136 30494","mean_motion":15.34408136,"eccentricity":0.0001687,"inclination_deg":53.1584,"raan_deg":79.9132,"arg_perigee_deg":86.0967,"mean_anomaly_deg":274.0228,"bstar":0.00061197,"rev_number":3049,"period_min":93.847260465777,"perigee_km":461.52501273832,"apogee_km":463.83310407642,"semimajor_km":6840.8160584074,"source":"CELESTRAK","updated_at":"2026-09-20T09:00:43.800980Z"}}}